Regional Weather Roundup
Issued by NWS Portland, ME

Home | Current Version | Previous Version | Text Only | Print | Product List | Glossary On
Versions: 1 2 3 4 5 6 7 8 9 10 11 12 13 14 15 16 17 18 19 20 21 22 23 24 25 26 27 28 29 30 31 32 33 34 35 36 37 38 39 40 41 42 43 44 45 46 47 48 49 50
000
ASUS41 KGYX 180810
RWRGYX
WEATHER ROUNDUP FOR MAINE AND NEW HAMPSHIRE
NATIONAL WEATHER SERVICE GRAY ME
300 AM EST MON FEB 18 2019

MEZ002-005-006-010-012-015-018-020-021-024-026-027-029-180900-
MAINE

CITY           SKY/WX    TMP DP  RH WIND       PRES   REMARKS
PORTLAND       CLOUDY    25  11  55 E9        30.00F
SANFORD        MOCLDY    25  19  78 N5        29.96F
BAR HARBOR     MOCLDY    17   7  64 NE5       30.04F
WISCASSET      CLOUDY    22  11  62 NE3       30.02F
ROCKLAND       FAIR      23  10  57 NE9       30.02F
FRYEBURG       CLOUDY    19   6  57 NW5       29.98F
LEWISTONAUBURN CLOUDY    19   9  63 N6        30.00F
AUGUSTA        MOCLDY    17   4  56 N6        30.01F
WATERVILLE     CLOUDY    16   4  59 NE5       29.99F
BANGOR         MOCLDY    15   2  56 NE8       30.04F
GREENVILLE       N/A      7  -8  50 N6        29.89F
MILLINOCKET    FAIR       1  -5  75 CALM      30.02F
HOULTON        NOT AVBL
PRESQUE ISLE   FAIR     -19 -24  77 CALM      30.03F
FRENCHVILLE    FAIR       0  -7  72 W5        29.96F
CARIBOU        FAIR      -9 -13  83 CALM      30.00F
$$

NHZ002-005-008-009-011-012-014-180900-
NEW HAMPSHIRE

CITY           SKY/WX    TMP DP  RH WIND       PRES   REMARKS
PORTSMOUTH     LGT SNOW  27  22  79 CALM      29.95F
ROCHESTER      FLURRIES  25  17  72 CALM      29.94F
NASHUA         LGT SNOW  26  23  88 CALM      29.96F FOG
MANCHESTER     LGT SNOW  27  20  75 S3        29.95F
CONCORD        CLOUDY    25  18  74 CALM      29.95F
LACONIA        LGT SNOW  19  12  74 CALM      29.96F
PLYMOUTH       CLOUDY    18  11  75 CALM      29.96F
BERLIN         CLOUDY     6   2  83 CALM      29.93F
WHITEFIELD     CLOUDY    13   4  67 CALM      29.92F
JAFFREY        LGT SNOW  25  22  88 CALM      29.89F FOG
KEENE          FLURRIES  26  23  88 CALM      29.93F
LEBANON        CLOUDY    21   6  52 CALM      29.94F
MT WASHINGTON  FLURRIES   5   0  78 SW18        N/A  WCI -15
$$

VTZ005-007-008-180900-
VERMONT

CITY           SKY/WX    TMP DP  RH WIND       PRES   REMARKS
ST JOHNSBURY     N/A     11   4  73 MISG      29.94F
MONTPELIER     CLOUDY    13   6  74 CALM      29.94F
BURLINGTON     CLOUDY    11   2  67 N6        29.97F
$$

MAZ007-012-024-CTZ003-RIZ002-NYZ038-NYZ072-180900-
SOUTHERN NEW ENGLAND AND NY

CITY           SKY/WX    TMP DP  RH WIND       PRES   REMARKS
BOSTON         LGT SNOW  29  27  92 SE8       29.96F FOG
WORCESTER      LGT SNOW  24  23  96 E3        29.87F VSB 3/4
NANTUCKET      LGT SNOW  31  30  96 NE7       29.94F FOG
PROVIDENCE     MIX PCPN  29  27  92 NE5       29.94F FOG
HARTFORD       LGT SNOW  29  26  89 NE3       29.91F VSB 3/4
ALBANY         LGT SNOW  20  15  81 NE6       29.91F
NEW YORK CITY  LGT RAIN  33  31  92 NE9       29.87F FOG
$$

ANZ081-ANZ082-ANZ150-NHZ014-MEZ023>029-180900-
COASTAL MARINE OBSERVATIONS

STATION/POSITION TIME  TEMP    WIND        PRES    WAVE
                       AIR SEA DIR/SP/G            HT/PER
                 (UTC) (F)     (DEG/KT/KT) (MB)    (FT/S)
MOUNT DESERT ROC 0800   26      30/ 14/ 16 1016.7F
MATINICUS ROCK   0700   29      80/ 12/ 16 1016.0F
ISLE OF SHOALS   0700   33     180/ 12/ 14 1014.9F
JEFFREYS LEDGE   0738      40                N/A     3/ 8
CASHES LEDGE BUO 0750   30 40              1016.4F   2/ 8
$$

.............KEY..............
   WCI - WIND CHILL
   TC  - TEMPERATURE IN CELSIUS
   VSB - VISIBILITY IN MILES
   HX  - HEAT INDEX
   FAIR- INDICATES FEW OR NO CLOUDS BELOW 12,000 FT, WITH NO
         SIGNIFICANT WEATHER AND/OR OBSTRUCTIONS TO VISIBILITY.






USA.gov is the U.S. government's official web portal to all federal, state and local government web resources and services.